This is the latest recevied weather packets stored in our database for station/object F4FEB-14. If no packets are shown the sender has not sent any weather packets the latest 10 day(s).
| Time | Temp. | Humidity | Pressure | Rain* | Wind** | Luminosity | Snow |
|---|---|---|---|---|---|---|---|
| 1777234008 | 10° C | 100% | 1021.2 hPa | 0 mm | - | - | - |
| 1777233706 | 10° C | 100% | 1021.1 hPa | 0 mm | - | - | - |
| 1777233405 | 10.56° C | 100% | 1021.1 hPa | 0 mm | - | - | - |
| 1777233103 | 10.56° C | 100% | 1021.1 hPa | 0 mm | - | - | - |
| 1777232802 | 10.56° C | 100% | 1021.1 hPa | 0 mm | - | - | - |
| 1777232501 | 11.11° C | 100% | 1021 hPa | 0 mm | - | - | - |
| 1777232201 | 11.11° C | 98% | 1021 hPa | 0 mm | - | - | - |
| 1777231899 | 11.11° C | 96% | 1021 hPa | 0 mm | - | - | - |
| 1777231598 | 11.67° C | 90% | 1020.9 hPa | 0 mm | - | - | - |
| 1777231297 | 11.67° C | 86% | 1020.9 hPa | 0 mm | - | - | - |
| 1777230995 | 12.22° C | 83% | 1020.9 hPa | 0 mm | - | - | - |
| 1777230695 | 12.22° C | 80% | 1020.8 hPa | 0 mm | - | - | - |
| 1777230394 | 12.22° C | 78% | 1020.9 hPa | 0 mm | - | - | - |
| 1777230092 | 12.22° C | 76% | 1020.7 hPa | 0 mm | - | - | - |
| 1777229791 | 12.78° C | 71% | 1020.7 hPa | 0 mm | - | - | - |
| 1777229490 | 12.78° C | 68% | 1020.7 hPa | 0 mm | - | - | - |
| 1777229189 | 13.33° C | 63% | 1020.7 hPa | 0 mm | - | - | - |
| 1777228888 | 13.33° C | 62% | 1020.6 hPa | 0 mm | - | - | - |
| 1777228587 | 13.89° C | 59% | 1020.6 hPa | 0 mm | - | - | - |
| 1777228286 | 14.44° C | 56% | 1020.6 hPa | 0 mm | - | - | - |
| 1777227985 | 14.44° C | 52% | 1020.6 hPa | 0 mm | - | - | - |
| 1777227683 | 15° C | 51% | 1020.5 hPa | 0 mm | - | - | - |
| 1777227382 | 15.56° C | 48% | 1020.4 hPa | 0 mm | - | - | - |
| 1777227081 | 16.11° C | 46% | 1020.4 hPa | 0 mm | - | - | - |
| 1777226780 | 16.67° C | 44% | 1020.4 hPa | 0 mm | - | - | - |
* Rain latest hour (hover to see other rain measurements)
** Current wind speed in m/s (hover to see current wind gust speed)